{"data":{"norad_id":64324,"intl_designator":"2025-124H","name":"STARLINK-11696 [DTC]","alt_names":[],"object_type":"PAYLOAD","status":"ACTIVE","operator":null,"country":"US","launch_date":"2025-06-10","launch_site_code":"AFETR","launch_vehicle":null,"mission":null,"orbit_class":"UNKNOWN","rcs_meters":null,"size_class":null,"mass_kg":null,"dimensions":null,"purposes":["comms"],"wikipedia_slug":null,"has_3d_model":false,"image_url":null,"decayed_at":null,"tle_current":{"epoch":"2026-09-19T09:45:32.003424Z","epoch_age_seconds":232089,"freshness":"STALE","line1":"1 64324U 25124H   26262.40662041  .00171144  00000+0  13054-2 0  9996","line2":"2 64324  42.9995 301.3186 0000786 239.7899 120.2891 15.70923317 73303","mean_motion":15.70923317,"eccentricity":7.86e-5,"inclination_deg":42.9995,"raan_deg":301.3186,"arg_perigee_deg":239.7899,"mean_anomaly_deg":120.2891,"bstar":0.0013054,"rev_number":7330,"period_min":91.665836544458,"perigee_km":355.72761315116,"apogee_km":356.78625987798,"semimajor_km":6734.3939365146,"source":"CELESTRAK","updated_at":"2026-09-21T09:00:35.312034Z"}}}